| time (UTC) | temp F | wind direction | speed MPH | gust MPH | rain 1hr in | rain 24hr in | rain mn in | humidity % | barometer mb |
| 20260509173020 | 55 | 255 | 4.0 | 13.0 | 0.00 | 0.00 | 0.00 | 61 | 1018.4 |
| 20260509172516 | 55 | 202 | 6.0 | 13.0 | 0.00 | 0.00 | 0.00 | 60 | 1018.3 |
| 20260509172019 | 55 | 251 | 3.0 | 10.0 | 0.00 | 0.00 | 0.00 | 62 | 1018.5 |
| 20260509171519 | 54 | 210 | 4.0 | 11.0 | 0.00 | 0.00 | 0.00 | 63 | 1018.4 |
| 20260509171012 | 54 | 251 | 3.0 | 12.0 | 0.00 | 0.00 | 0.00 | 63 | 1018.3 |
| 20260509170519 | 54 | 214 | 4.0 | 12.0 | 0.00 | 0.00 | 0.00 | 63 | 1018.3 |
| 20260509170012 | 54 | 265 | 5.0 | 12.0 | 0.00 | 0.00 | 0.00 | 63 | 1018.3 |
| 20260509165519 | 55 | 238 | 4.0 | 9.0 | 0.00 | 0.00 | 0.00 | 65 | 1018.2 |
| 20260509165031 | 55 | 327 | 2.0 | 11.0 | 0.00 | 0.00 | 0.00 | 65 | 1018.2 |
| 20260509164523 | 54 | 264 | 3.0 | 12.0 | 0.00 | 0.00 | 0.00 | 65 | 1018.1 |
| 20260509164018 | 54 | 292 | 4.0 | 10.0 | 0.00 | 0.00 | 0.00 | 65 | 1018.1 |
| 20260509163512 | 55 | 252 | 4.0 | 10.0 | 0.00 | 0.00 | 0.00 | 65 | 1018.2 |
| 20260509163030 | 54 | 115 | 3.0 | 11.0 | 0.00 | 0.00 | 0.00 | 67 | 1018.1 |
| 20260509162518 | 54 | 250 | 3.0 | 11.0 | 0.00 | 0.00 | 0.00 | 67 | 1018.2 |
| 20260509162011 | 54 | 129 | 3.0 | 8.0 | 0.00 | 0.00 | 0.00 | 68 | 1018.2 |
| 20260509161529 | 53 | 135 | 4.0 | 11.0 | 0.00 | 0.00 | 0.00 | 67 | 1018.3 |
| 20260509161011 | 53 | 251 | 3.0 | 11.0 | 0.00 | 0.00 | 0.00 | 68 | 1018.3 |
| 20260509160519 | 53 | 240 | 4.0 | 12.0 | 0.00 | 0.00 | 0.00 | 67 | 1018.3 |
| 20260509160011 | 53 | 283 | 4.0 | 12.0 | 0.00 | 0.00 | 0.00 | 68 | 1018.0 |
| 20260509155518 | 53 | 276 | 5.0 | 10.0 | 0.00 | 0.00 | 0.00 | 67 | 1018.0 |
| 20260509155011 | 53 | 236 | 3.0 | 10.0 | 0.00 | 0.00 | 0.00 | 69 | 1018.1 |
| 20260509154518 | 52 | 260 | 3.0 | 11.0 | 0.00 | 0.00 | 0.00 | 70 | 1018.1 |
| 20260509154011 | 52 | 264 | 4.0 | 11.0 | 0.00 | 0.00 | 0.00 | 68 | 1017.9 |
| 20260509153518 | 53 | 295 | 5.0 | 11.0 | 0.00 | 0.00 | 0.00 | 66 | 1018.0 |
| 20260509153011 | 53 | 281 | 3.0 | 9.0 | 0.00 | 0.00 | 0.00 | 69 | 1017.9 |
| 20260509152518 | 53 | 307 | 5.0 | 9.0 | 0.00 | 0.00 | 0.00 | 67 | 1017.9 |
| 20260509152011 | 54 | 289 | 3.0 | 9.0 | 0.00 | 0.00 | 0.00 | 70 | 1018.0 |
| 20260509151018 | 52 | 272 | 3.0 | 11.0 | 0.00 | 0.00 | 0.00 | 71 | 1017.9 |
| 20260509150511 | 52 | 205 | 5.0 | 11.0 | 0.00 | 0.00 | 0.00 | 70 | 1017.8 |
| 20260509150019 | 52 | 223 | 5.0 | 11.0 | 0.00 | 0.00 | 0.00 | 70 | 1017.8 |
| 20260509145522 | 51 | 203 | 6.0 | 11.0 | 0.00 | 0.00 | 0.00 | 69 | 1017.6 |
| 20260509145021 | 52 | 226 | 5.0 | 12.0 | 0.00 | 0.00 | 0.00 | 70 | 1017.6 |
| 20260509144518 | 52 | 222 | 4.0 | 12.0 | 0.00 | 0.00 | 0.00 | 70 | 1017.8 |
| 20260509144023 | 52 | 283 | 2.0 | 10.0 | 0.00 | 0.00 | 0.00 | 70 | 1017.6 |
| 20260509143522 | 52 | 154 | 3.0 | 12.0 | 0.00 | 0.00 | 0.00 | 70 | 1017.7 |
| 20260509143020 | 52 | 295 | 3.0 | 12.0 | 0.00 | 0.00 | 0.00 | 68 | 1017.6 |
| 20260509142511 | 52 | 276 | 3.0 | 10.0 | 0.00 | 0.00 | 0.00 | 70 | 1017.5 |
| 20260509141516 | 52 | 291 | 3.0 | 11.0 | 0.00 | 0.00 | 0.00 | 70 | 1017.4 |
| 20260509140511 | 52 | 243 | 3.0 | 9.0 | 0.00 | 0.00 | 0.00 | 68 | 1017.3 |
| 20260509140019 | 52 | 254 | 3.0 | 9.0 | 0.00 | 0.00 | 0.00 | 68 | 1017.3 |
| 20260509135511 | 52 | 217 | 5.0 | 9.0 | 0.00 | 0.00 | 0.00 | 66 | 1017.2 |
| 20260509135019 | 53 | 258 | 3.0 | 8.0 | 0.00 | 0.00 | 0.00 | 68 | 1017.1 |
| 20260509134512 | 52 | 245 | 3.0 | 8.0 | 0.00 | 0.00 | 0.00 | 68 | 1016.9 |
| 20260509134030 | 53 | 258 | 3.0 | 9.0 | 0.00 | 0.00 | 0.00 | 67 | 1016.9 |
| 20260509133522 | 53 | 255 | 2.0 | 9.0 | 0.00 | 0.00 | 0.00 | 68 | 1016.9 |
| 20260509133023 | 53 | 279 | 2.0 | 9.0 | 0.00 | 0.00 | 0.00 | 71 | 1016.8 |
| 20260509132511 | 53 | 273 | 3.0 | 9.0 | 0.00 | 0.00 | 0.00 | 71 | 1016.7 |
| 20260509132019 | 53 | 188 | 4.0 | 6.0 | 0.00 | 0.00 | 0.00 | 70 | 1016.8 |
| 20260509131512 | 52 | 109 | 3.0 | 6.0 | 0.00 | 0.00 | 0.00 | 70 | 1016.7 |
| 20260509131023 | 52 | 244 | 3.0 | 7.0 | 0.00 | 0.00 | 0.00 | 70 | 1016.6 |
| 20260509130511 | 52 | 235 | 3.0 | 9.0 | 0.00 | 0.00 | 0.00 | 71 | 1016.6 |
| 20260509130018 | 51 | 131 | 3.0 | 9.0 | 0.00 | 0.00 | 0.00 | 71 | 1016.5 |
| 20260509125512 | 52 | 243 | 4.0 | 7.0 | 0.00 | 0.00 | 0.00 | 70 | 1016.5 |
| 20260509125018 | 52 | 162 | 1.0 | 6.0 | 0.00 | 0.00 | 0.00 | 71 | 1016.4 |
| 20260509124511 | 52 | 258 | 3.0 | 6.0 | 0.00 | 0.00 | 0.00 | 70 | 1016.3 |
| 20260509124018 | 52 | 206 | 2.0 | 6.0 | 0.00 | 0.00 | 0.00 | 71 | 1016.3 |
| 20260509123520 | 52 | 214 | 0.0 | 7.0 | 0.00 | 0.00 | 0.00 | 74 | 1016.3 |
| 20260509123012 | 51 | 290 | 2.0 | 7.0 | 0.00 | 0.00 | 0.00 | 72 | 1016.3 |
| 20260509122518 | 51 | 295 | 1.0 | 6.0 | 0.00 | 0.00 | 0.00 | 72 | 1016.4 |
| 20260509122011 | 51 | 255 | 1.0 | 6.0 | 0.00 | 0.00 | 0.00 | 73 | 1016.4 |
| 20260509121519 | 51 | 226 | 2.0 | 5.0 | 0.00 | 0.00 | 0.00 | 73 | 1016.2 |
| 20260509121011 | 50 | 214 | 1.0 | 5.0 | 0.00 | 0.00 | 0.00 | 74 | 1016.4 |
| 20260509120519 | 50 | 256 | 1.0 | 4.0 | 0.00 | 0.00 | 0.00 | 74 | 1016.3 |
| 20260509120012 | 50 | 266 | 1.0 | 6.0 | 0.00 | 0.00 | 0.00 | 75 | 1016.3 |
| 20260509115519 | 50 | 248 | 2.0 | 6.0 | 0.00 | 0.00 | 0.00 | 74 | 1016.4 |
| 20260509115012 | 50 | 232 | 2.0 | 6.0 | 0.00 | 0.00 | 0.00 | 75 | 1016.4 |
| 20260509114519 | 49 | 214 | 3.0 | 6.0 | 0.00 | 0.00 | 0.00 | 74 | 1016.3 |
| 20260509114011 | 49 | 219 | 1.0 | 5.0 | 0.00 | 0.00 | 0.00 | 75 | 1016.2 |
| 20260509113518 | 49 | 210 | 1.0 | 5.0 | 0.00 | 0.00 | 0.00 | 74 | 1016.1 |
| 20260509113022 | 49 | 244 | 1.0 | 5.0 | 0.00 | 0.00 | 0.00 | 76 | 1016.0 |
| 20260509112519 | 48 | 171 | 1.0 | 5.0 | 0.00 | 0.00 | 0.00 | 77 | 1016.0 |
| 20260509112011 | 48 | 212 | 2.0 | 5.0 | 0.00 | 0.00 | 0.00 | 77 | 1015.8 |
| 20260509111519 | 48 | 278 | 1.0 | 4.0 | 0.00 | 0.00 | 0.00 | 78 | 1015.8 |
| 20260509111011 | 48 | 220 | 2.0 | 4.0 | 0.00 | 0.00 | 0.00 | 77 | 1015.7 |
| 20260509110518 | 48 | 167 | 1.0 | 3.0 | 0.00 | 0.00 | 0.00 | 80 | 1015.5 |
| 20260509110012 | 48 | 235 | 0.0 | 2.0 | 0.00 | 0.00 | 0.00 | 80 | 1015.4 |
| 20260509105535 | 47 | 268 | 1.0 | 2.0 | 0.00 | 0.00 | 0.00 | 79 | 1015.4 |
| 20260509105011 | 47 | 279 | 0.0 | 4.0 | 0.00 | 0.00 | 0.00 | 81 | 1015.5 |
| 20260509104519 | 45 | 250 | 1.0 | 4.0 | 0.00 | 0.00 | 0.00 | 82 | 1015.4 |
| 20260509104011 | 45 | 266 | 1.0 | 3.0 | 0.00 | 0.00 | 0.00 | 81 | 1015.4 |
| 20260509103519 | 45 | 229 | 0.0 | 2.0 | 0.00 | 0.00 | 0.00 | 83 | 1015.2 |
| 20260509103018 | 44 | 211 | 0.0 | 2.0 | 0.00 | 0.00 | 0.00 | 84 | 1015.0 |
| 20260509102527 | 44 | 220 | 0.0 | 2.0 | 0.00 | 0.00 | 0.00 | 85 | 1014.9 |
| 20260509102019 | 43 | 252 | 0.0 | 1.0 | 0.00 | 0.00 | 0.00 | 85 | 1014.9 |
| 20260509101518 | 42 | 254 | 0.0 | 1.0 | 0.00 | 0.00 | 0.00 | 86 | 1014.7 |
| 20260509101012 | 42 | 251 | 0.0 | 1.0 | 0.00 | 0.00 | 0.00 | 86 | 1014.6 |
| 20260509100518 | 41 | 292 | 0.0 | 2.0 | 0.00 | 0.00 | 0.00 | 87 | 1014.4 |
| 20260509100011 | 41 | 295 | 0.0 | 3.0 | 0.00 | 0.00 | 0.00 | 87 | 1014.2 |
| 20260509095519 | 40 | 238 | 1.0 | 3.0 | 0.00 | 0.00 | 0.00 | 87 | 1014.1 |
| 20260509095022 | 40 | 241 | 0.0 | 1.0 | 0.00 | 0.00 | 0.00 | 87 | 1013.9 |
| 20260509094529 | 40 | 250 | 0.0 | 3.0 | 0.00 | 0.00 | 0.00 | 87 | 1013.7 |
| 20260509094011 | 40 | 267 | 0.0 | 3.0 | 0.00 | 0.00 | 0.00 | 88 | 1013.7 |
| 20260509093519 | 40 | 285 | 1.0 | 3.0 | 0.00 | 0.00 | 0.00 | 88 | 1013.7 |
| 20260509093011 | 40 | 294 | 1.0 | 3.0 | 0.00 | 0.00 | 0.00 | 88 | 1013.5 |
| 20260509092519 | 39 | 281 | 1.0 | 4.0 | 0.00 | 0.00 | 0.00 | 89 | 1013.5 |
| 20260509092018 | 39 | 293 | 2.0 | 4.0 | 0.00 | 0.00 | 0.00 | 90 | 1013.3 |
| 20260509091522 | 39 | 316 | 3.0 | 4.0 | 0.00 | 0.00 | 0.00 | 91 | 1013.2 |
| 20260509091020 | 38 | 295 | 1.0 | 4.0 | 0.00 | 0.00 | 0.00 | 91 | 1013.2 |
| 20260509090518 | 38 | 290 | 1.0 | 3.0 | 0.00 | 0.00 | 0.00 | 92 | 1013.1 |
| 20260509090011 | 37 | 300 | 1.0 | 2.0 | 0.00 | 0.00 | 0.00 | 92 | 1013.1 |
| 20260509085519 | 37 | 299 | 1.0 | 2.0 | 0.00 | 0.00 | 0.00 | 92 | 1013.1 |
| 20260509085016 | 37 | 279 | 1.0 | 2.0 | 0.00 | 0.00 | 0.00 | 92 | 1013.0 |
| 20260509084518 | 36 | 301 | 0.0 | 1.0 | 0.00 | 0.00 | 0.00 | 92 | 1013.1 |
| 20260509084012 | 36 | 274 | 0.0 | 1.0 | 0.00 | 0.00 | 0.00 | 91 | 1012.9 |
| 20260509083519 | 36 | 274 | 0.0 | 1.0 | 0.00 | 0.00 | 0.00 | 91 | 1013.0 |
| 20260509083013 | 36 | 278 | 0.0 | 1.0 | 0.00 | 0.00 | 0.00 | 91 | 1013.0 |
| 20260509082519 | 37 | 279 | 0.0 | 1.0 | 0.00 | 0.00 | 0.00 | 91 | 1012.9 |
| 20260509082018 | 37 | 279 | 0.0 | 1.0 | 0.00 | 0.00 | 0.00 | 91 | 1013.0 |
| 20260509081512 | 37 | 279 | 0.0 | 1.0 | 0.00 | 0.00 | 0.00 | 91 | 1012.8 |
| 20260509081030 | 37 | 285 | 0.0 | 1.0 | 0.00 | 0.00 | 0.00 | 91 | 1012.7 |
| 20260509080511 | 37 | 285 | 0.0 | 1.0 | 0.00 | 0.00 | 0.00 | 91 | 1012.8 |
| 20260509080018 | 37 | 285 | 0.0 | 2.0 | 0.00 | 0.00 | 0.00 | 91 | 1012.6 |
| 20260509075511 | 37 | 295 | 0.0 | 2.0 | 0.00 | 0.00 | 0.00 | 92 | 1012.6 |
| 20260509075019 | 37 | 262 | 0.0 | 3.0 | 0.00 | 0.00 | 0.00 | 92 | 1012.6 |
| 20260509074518 | 37 | 269 | 1.0 | 3.0 | 0.00 | 0.00 | 0.00 | 92 | 1012.7 |
| 20260509074011 | 37 | 306 | 1.0 | 3.0 | 0.00 | 0.00 | 0.00 | 92 | 1012.5 |
| 20260509073523 | 37 | 283 | 0.0 | 2.0 | 0.00 | 0.00 | 0.00 | 91 | 1012.6 |
| 20260509073019 | 37 | 265 | 0.0 | 1.0 | 0.00 | 0.00 | 0.00 | 92 | 1012.4 |
| 20260509072512 | 37 | 265 | 0.0 | 1.0 | 0.00 | 0.00 | 0.00 | 92 | 1012.5 |
| 20260509072019 | 37 | 264 | 0.0 | 1.0 | 0.00 | 0.00 | 0.00 | 92 | 1012.5 |
| 20260509071519 | 37 | 274 | 0.0 | 1.0 | 0.00 | 0.00 | 0.00 | 91 | 1012.5 |
| 20260509071038 | 37 | 274 | 0.0 | 1.0 | 0.00 | 0.00 | 0.00 | 92 | 1012.5 |
| 20260509070519 | 37 | 274 | 0.0 | 1.0 | 0.00 | 0.00 | 0.00 | 91 | 1012.3 |
| 20260509070011 | 37 | 274 | 0.0 | 1.0 | 0.00 | 0.00 | 0.00 | 91 | 1012.2 |
| 20260509065519 | 37 | 274 | 0.0 | 1.0 | 0.00 | 0.00 | 0.00 | 91 | 1012.1 |
| 20260509065018 | 37 | 274 | 0.0 | 1.0 | 0.00 | 0.00 | 0.00 | 91 | 1012.0 |
| 20260509064512 | 37 | 274 | 0.0 | 1.0 | 0.00 | 0.00 | 0.00 | 91 | 1012.0 |
| 20260509064031 | 37 | 274 | 0.0 | 1.0 | 0.00 | 0.00 | 0.00 | 90 | 1012.0 |
| 20260509063522 | 38 | 274 | 0.0 | 1.0 | 0.00 | 0.00 | 0.00 | 90 | 1011.9 |
| 20260509063018 | 38 | 274 | 0.0 | 1.0 | 0.00 | 0.00 | 0.00 | 91 | 1011.7 |
| 20260509062512 | 38 | 276 | 0.0 | 1.0 | 0.00 | 0.00 | 0.00 | 90 | 1011.6 |
| 20260509062031 | 38 | 275 | 0.0 | 1.0 | 0.00 | 0.00 | 0.00 | 89 | 1011.3 |
| 20260509061518 | 38 | 274 | 0.0 | 1.0 | 0.00 | 0.00 | 0.00 | 89 | 1011.3 |
| 20260509061011 | 39 | 274 | 0.0 | 1.0 | 0.00 | 0.00 | 0.00 | 89 | 1011.2 |
| 20260509060519 | 39 | 276 | 0.0 | 1.0 | 0.00 | 0.00 | 0.00 | 90 | 1011.1 |
| 20260509060014 | 39 | 277 | 0.0 | 1.0 | 0.00 | 0.00 | 0.00 | 90 | 1011.0 |
| 20260509055530 | 39 | 282 | 0.0 | 1.0 | 0.00 | 0.00 | 0.00 | 90 | 1010.9 |
| 20260509055024 | 39 | 280 | 0.0 | 2.0 | 0.00 | 0.00 | 0.00 | 90 | 1010.9 |
| 20260509054519 | 39 | 281 | 0.0 | 2.0 | 0.00 | 0.00 | 0.00 | 90 | 1010.8 |
| 20260509054017 | 39 | 265 | 0.0 | 1.0 | 0.00 | 0.00 | 0.00 | 90 | 1010.8 |
| 20260509053519 | 39 | 286 | 0.0 | 1.0 | 0.00 | 0.00 | 0.00 | 90 | 1010.7 |
| 20260509053018 | 39 | 290 | 0.0 | 2.0 | 0.00 | 0.00 | 0.00 | 90 | 1010.6 |
| 20260509052512 | 39 | 290 | 0.0 | 2.0 | 0.00 | 0.00 | 0.00 | 90 | 1010.6 |
| 20260509052019 | 39 | 277 | 0.0 | 2.0 | 0.00 | 0.00 | 0.00 | 90 | 1010.6 |
| 20260509051512 | 38 | 262 | 0.0 | 0.0 | 0.00 | 0.00 | 0.00 | 89 | 1010.6 |
| 20260509051019 | 39 | 256 | 0.0 | 0.0 | 0.00 | 0.00 | 0.00 | 89 | 1010.6 |
| 20260509050520 | 39 | 256 | 0.0 | 0.0 | 0.00 | 0.00 | 0.00 | 89 | 1010.4 |
| 20260509050012 | 39 | 256 | 0.0 | 1.0 | 0.00 | 0.00 | 0.00 | 90 | 1010.5 |
| 20260509045531 | 39 | 256 | 0.0 | 1.0 | 0.00 | 0.00 | 0.00 | 89 | 1010.4 |
| 20260509045019 | 39 | 256 | 0.0 | 1.0 | 0.00 | 0.00 | 0.00 | 89 | 1010.3 |
| 20260509044513 | 39 | 256 | 0.0 | 0.0 | 0.00 | 0.00 | 0.00 | 89 | 1010.2 |
| 20260509044019 | 39 | 256 | 0.0 | 1.0 | 0.00 | 0.00 | 0.00 | 88 | 1010.2 |
| 20260509043518 | 39 | 256 | 0.0 | 1.0 | 0.00 | 0.00 | 0.00 | 88 | 1010.1 |
| 20260509043023 | 40 | 245 | 0.0 | 1.0 | 0.00 | 0.00 | 0.00 | 88 | 1010.1 |
| 20260509042530 | 40 | 245 | 0.0 | 1.0 | 0.00 | 0.00 | 0.00 | 88 | 1010.0 |
| 20260509042019 | 40 | 245 | 0.0 | 0.0 | 0.00 | 0.00 | 0.00 | 88 | 1009.9 |
| 20260509041512 | 40 | 245 | 0.0 | 1.0 | 0.00 | 0.00 | 0.00 | 88 | 1009.8 |
| 20260509041019 | 40 | 245 | 0.0 | 1.0 | 0.00 | 0.00 | 0.00 | 88 | 1009.8 |
| 20260509040519 | 40 | 243 | 0.0 | 1.0 | 0.00 | 0.00 | 0.00 | 88 | 1009.7 |
| 20260509040012 | 40 | 243 | 0.0 | 1.0 | 0.00 | 0.00 | 0.00 | 87 | 1009.5 |
| 20260509035519 | 40 | 243 | 0.0 | 2.0 | 0.00 | 0.00 | 0.00 | 87 | 1009.6 |
| 20260509035031 | 40 | 243 | 0.0 | 2.0 | 0.00 | 0.00 | 0.00 | 87 | 1009.6 |
| 20260509034512 | 40 | 245 | 0.0 | 1.0 | 0.00 | 0.00 | 0.00 | 87 | 1009.4 |
| 20260509034024 | 40 | 245 | 0.0 | 1.0 | 0.00 | 0.00 | 0.00 | 88 | 1009.4 |
| 20260509033529 | 40 | 238 | 0.0 | 1.0 | 0.00 | 0.00 | 0.00 | 88 | 1009.3 |
| 20260509033012 | 40 | 238 | 0.0 | 0.0 | 0.00 | 0.00 | 0.00 | 87 | 1009.3 |
| 20260509032519 | 40 | 237 | 0.0 | 0.0 | 0.00 | 0.00 | 0.00 | 88 | 1009.3 |
| 20260509032020 | 40 | 237 | 0.0 | 1.0 | 0.00 | 0.00 | 0.00 | 87 | 1009.2 |
| 20260509031515 | 40 | 237 | 0.0 | 1.0 | 0.00 | 0.00 | 0.00 | 87 | 1009.1 |
| 20260509031022 | 40 | 237 | 0.0 | 1.0 | 0.00 | 0.00 | 0.00 | 87 | 1009.1 |
| 20260509030519 | 40 | 236 | 0.0 | 2.0 | 0.00 | 0.00 | 0.00 | 86 | 1009.1 |
| 20260509030011 | 40 | 245 | 0.0 | 2.0 | 0.00 | 0.00 | 0.00 | 86 | 1009.1 |
| 20260509024020 | 41 | 238 | 0.0 | 2.0 | 0.00 | 0.00 | 0.00 | 83 | 1009.1 |
| 20260509023519 | 42 | 244 | 1.0 | 2.0 | 0.00 | 0.00 | 0.00 | 82 | 1009.0 |
| 20260509023012 | 42 | 239 | 0.0 | 1.0 | 0.00 | 0.00 | 0.00 | 81 | 1009.1 |
| 20260509022522 | 43 | 289 | 0.0 | 3.0 | 0.00 | 0.00 | 0.00 | 81 | 1009.0 |
| 20260509022019 | 43 | 292 | 1.0 | 3.0 | 0.00 | 0.00 | 0.00 | 81 | 1009.0 |
| 20260509021513 | 43 | 295 | 1.0 | 2.0 | 0.00 | 0.00 | 0.00 | 80 | 1008.9 |
| 20260509021031 | 44 | 291 | 0.0 | 1.0 | 0.00 | 0.00 | 0.00 | 79 | 1008.8 |
| 20260509020520 | 44 | 292 | 0.0 | 3.0 | 0.00 | 0.00 | 0.00 | 79 | 1008.6 |
| 20260509020012 | 44 | 311 | 2.0 | 3.0 | 0.00 | 0.00 | 0.00 | 79 | 1008.5 |
| 20260509013513 | 45 | 311 | 2.0 | 5.0 | 0.00 | 0.00 | 0.00 | 76 | 1008.3 |
| 20260509012513 | 46 | 326 | 4.0 | 10.0 | 0.00 | 0.00 | 0.00 | 75 | 1008.2 |
| 20260509012021 | 46 | 321 | 5.0 | 10.0 | 0.00 | 0.00 | 0.00 | 75 | 1008.1 |
| 20260509011532 | 46 | 306 | 4.0 | 10.0 | 0.00 | 0.00 | 0.00 | 75 | 1008.1 |
| 20260509011013 | 47 | 27 | 4.0 | 11.0 | 0.00 | 0.00 | 0.00 | 74 | 1008.0 |
| 20260509010016 | 48 | 277 | 4.0 | 10.0 | 0.00 | 0.00 | 0.00 | 73 | 1007.9 |
| 20260509004013 | 48 | 320 | 3.0 | 7.0 | 0.00 | 0.00 | 0.00 | 71 | 1007.5 |
| 20260509003520 | 48 | 314 | 4.0 | 8.0 | 0.00 | 0.00 | 0.00 | 71 | 1007.4 |
| 20260509003019 | 48 | 294 | 4.0 | 8.0 | 0.00 | 0.00 | 0.00 | 71 | 1007.3 |
| 20260509002512 | 49 | 30 | 2.0 | 7.0 | 0.00 | 0.00 | 0.00 | 71 | 1007.3 |
| 20260509002020 | 49 | 330 | 0.0 | 0.0 | 0.00 | 0.00 | 0.00 | 75 | 1007.0 |
| 20260509001519 | 49 | 330 | 0.0 | 0.0 | 0.00 | 0.00 | 0.00 | 74 | 1006.8 |
| 20260509001012 | 49 | 330 | 0.0 | 0.0 | 0.00 | 0.00 | 0.00 | 74 | 1006.7 |
| 20260509000520 | 49 | 330 | 0.0 | 0.0 | 0.00 | 0.00 | 0.00 | 73 | 1006.6 |
| 20260509000019 | 49 | 330 | 0.0 | 0.0 | 0.00 | 0.00 | 0.00 | 74 | 1006.5 |
| 20260508235512 | 49 | 330 | 0.0 | 0.0 | 0.00 | 0.00 | 0.00 | 70 | 1006.4 |
| 20260508235030 | 49 | 330 | 0.0 | 0.0 | 0.00 | 0.00 | 0.00 | 67 | 1006.3 |
| 20260508234524 | 50 | 330 | 0.0 | 0.0 | 0.00 | 0.00 | 0.00 | 66 | 1006.2 |
| 20260508234013 | 50 | 331 | 0.0 | 1.0 | 0.00 | 0.00 | 0.00 | 65 | 1006.2 |
| 20260508233520 | 51 | 331 | 0.0 | 1.0 | 0.00 | 0.00 | 0.00 | 64 | 1006.1 |
| 20260508233019 | 51 | 331 | 0.0 | 2.0 | 0.00 | 0.00 | 0.00 | 63 | 1005.9 |
| 20260508232512 | 52 | 335 | 0.0 | 2.0 | 0.00 | 0.00 | 0.00 | 63 | 1005.8 |
| 20260508232020 | 52 | 30 | 1.0 | 5.0 | 0.00 | 0.00 | 0.00 | 61 | 1005.6 |
| 20260508231519 | 53 | 346 | 3.0 | 5.0 | 0.00 | 0.00 | 0.00 | 60 | 1005.6 |
| 20260508231012 | 53 | 321 | 1.0 | 5.0 | 0.00 | 0.00 | 0.00 | 59 | 1005.5 |
| 20260508230520 | 53 | 328 | 3.0 | 8.0 | 0.00 | 0.00 | 0.00 | 58 | 1005.4 |
| 20260508230019 | 54 | 330 | 4.0 | 8.0 | 0.00 | 0.00 | 0.00 | 57 | 1005.3 |
| 20260508225514 | 54 | 6 | 3.0 | 7.0 | 0.00 | 0.00 | 0.00 | 55 | 1005.3 |
| 20260508225031 | 55 | 351 | 3.0 | 10.0 | 0.00 | 0.00 | 0.00 | 53 | 1005.0 |
| 20260508224522 | 55 | 334 | 4.0 | 11.0 | 0.00 | 0.00 | 0.00 | 52 | 1005.0 |
| 20260508224012 | 56 | 297 | 5.0 | 11.0 | 0.00 | 0.00 | 0.00 | 50 | 1004.8 |
| 20260508223520 | 56 | 332 | 5.0 | 11.0 | 0.00 | 0.00 | 0.00 | 49 | 1004.7 |
| 20260508223030 | 57 | 314 | 4.0 | 9.0 | 0.00 | 0.00 | 0.00 | 49 | 1004.5 |
| 20260508222512 | 57 | 308 | 5.0 | 9.0 | 0.00 | 0.00 | 0.00 | 49 | 1004.5 |
| 20260508222020 | 56 | 319 | 3.0 | 10.0 | 0.00 | 0.00 | 0.00 | 50 | 1004.4 |
| 20260508221519 | 55 | 308 | 5.0 | 10.0 | 0.00 | 0.00 | 0.00 | 50 | 1004.4 |
| 20260508221012 | 55 | 278 | 1.0 | 4.0 | 0.00 | 0.00 | 0.00 | 62 | 1004.2 |
| 20260508220519 | 56 | 268 | 1.0 | 5.0 | 0.00 | 0.00 | 0.00 | 59 | 1004.2 |
| 20260508220019 | 55 | 335 | 2.0 | 6.0 | 0.00 | 0.00 | 0.00 | 53 | 1003.9 |
| 20260508215512 | 55 | 337 | 3.0 | 6.0 | 0.00 | 0.00 | 0.00 | 55 | 1003.9 |
| 20260508215020 | 55 | 302 | 1.0 | 3.0 | 0.00 | 0.00 | 0.00 | 59 | 1003.8 |
| 20260508214529 | 54 | 315 | 1.0 | 3.0 | 0.00 | 0.00 | 0.00 | 64 | 1003.8 |
| 20260508214012 | 55 | 222 | 0.0 | 5.0 | 0.00 | 0.00 | 0.00 | 62 | 1003.8 |
| 20260508213520 | 55 | 304 | 2.0 | 5.0 | 0.00 | 0.00 | 0.00 | 57 | 1003.8 |
| 20260508213019 | 55 | 316 | 1.0 | 4.0 | 0.00 | 0.00 | 0.00 | 57 | 1003.7 |
| 20260508212512 | 55 | 266 | 2.0 | 4.0 | 0.00 | 0.00 | 0.00 | 60 | 1003.7 |
| 20260508212020 | 55 | 218 | 1.0 | 6.0 | 0.00 | 0.00 | 0.00 | 66 | 1003.6 |
| 20260508211519 | 54 | 49 | 3.0 | 6.0 | 0.00 | 0.00 | 0.00 | 63 | 1003.5 |
| 20260508211013 | 52 | 244 | 0.0 | 4.0 | 0.00 | 0.00 | 0.00 | 70 | 1003.5 |
| 20260508210520 | 52 | 236 | 0.0 | 6.0 | 0.00 | 0.00 | 0.00 | 72 | 1003.5 |
| 20260508210025 | 52 | 242 | 3.0 | 6.0 | 0.00 | 0.00 | 0.00 | 71 | 1003.6 |
| 20260508205515 | 52 | 207 | 2.0 | 6.0 | 0.00 | 0.00 | 0.00 | 71 | 1003.5 |
| 20260508205022 | 52 | 226 | 2.0 | 4.0 | 0.00 | 0.00 | 0.00 | 71 | 1003.4 |
| 20260508204520 | 51 | 271 | 1.0 | 4.0 | 0.00 | 0.00 | 0.00 | 73 | 1003.5 |
| 20260508204013 | 51 | 277 | 2.0 | 6.0 | 0.00 | 0.00 | 0.00 | 72 | 1003.4 |
| 20260508203014 | 52 | 245 | 2.0 | 5.0 | 0.00 | 0.00 | 0.00 | 71 | 1003.4 |
| 20260508195522 | 56 | 139 | 1.0 | 8.0 | 0.00 | 0.01 | 0.00 | 68 | 1002.9 |
| 20260508195020 | 56 | 226 | 3.0 | 8.0 | 0.00 | 0.01 | 0.00 | 67 | 1002.9 |
| 20260508194514 | 56 | 215 | 3.0 | 8.0 | 0.00 | 0.01 | 0.00 | 68 | 1002.9 |
| 20260508194023 | 56 | 225 | 2.0 | 9.0 | 0.00 | 0.01 | 0.00 | 68 | 1002.9 |
| 20260508193521 | 58 | 245 | 4.0 | 9.0 | 0.00 | 0.01 | 0.00 | 64 | 1002.9 |
| 20260508193013 | 58 | 337 | 4.0 | 8.0 | 0.00 | 0.01 | 0.00 | 64 | 1002.8 |
| 20260508190524 | 55 | 175 | 2.0 | 8.0 | 0.00 | 0.01 | 0.00 | 69 | 1002.6 |
| 20260508185519 | 56 | 250 | 3.0 | 13.0 | 0.00 | 0.06 | 0.00 | 67 | 1002.6 |
| 20260508185024 | 56 | 188 | 5.0 | 13.0 | 0.00 | 0.06 | 0.00 | 65 | 1002.5 |
| 20260508184013 | 56 | 334 | 4.0 | 10.0 | 0.00 | 0.06 | 0.00 | 65 | 1002.5 |
| 20260508183533 | 57 | 236 | 3.0 | 10.0 | 0.00 | 0.06 | 0.00 | 66 | 1002.5 |
| 20260508183020 | 56 | 265 | 3.0 | 10.0 | 0.00 | 0.06 | 0.00 | 66 | 1002.6 |
| 20260508182513 | 56 | 239 | 4.0 | 11.0 | 0.00 | 0.06 | 0.00 | 68 | 1002.6 |
| 20260508182020 | 55 | 236 | 3.0 | 11.0 | 0.00 | 0.06 | 0.00 | 69 | 1002.7 |
| 20260508181520 | 56 | 226 | 4.0 | 11.0 | 0.00 | 0.06 | 0.00 | 68 | 1002.7 |
| 20260508181024 | 56 | 205 | 4.0 | 8.0 | 0.00 | 0.06 | 0.00 | 70 | 1002.8 |
| 20260508180521 | 56 | 255 | 3.0 | 8.0 | 0.00 | 0.06 | 0.00 | 68 | 1002.8 |
| 20260508180020 | 55 | 309 | 2.0 | 15.0 | 0.00 | 0.06 | 0.00 | 70 | 1002.8 |
| 20260508175513 | 55 | 264 | 5.0 | 17.0 | 0.00 | 0.35 | 0.00 | 70 | 1002.8 |